Regional Weather Roundup
Issued by NWS

Home | Current Version | Previous Version | Text Only | Print | Product List | Glossary On
Versions: 1 2 3 4 5 6 7 8 9 10 11 12 13 14 15 16 17 18 19 20 21 22 23 24 25 26 27 28 29 30 31 32 33 34 35 36 37 38 39 40 41 42 43 44 45 46 47 48 49 50
000
ASUS45 KSLC 011710
RWRUT

UTAH REGIONAL WEATHER ROUNDUP
NATIONAL WEATHER SERVICE SALT LAKE CITY UT
1100 AM MDT TUE SEP 01 2015

UTZ001>011-023>025-011800-

NORTHERN UTAH

CITY           SKY/WX    TMP DP  RH WIND       PRES   REMARKS
BRIGHAM CITY   MOSUNNY   78  40  26 SE7       30.02R
HILL AFB       MOSUNNY   82  48  30 S17G24    30.04R
LOGAN          SUNNY     72  41  32 VRB3      30.03S
OGDEN          MOSUNNY   84  46  26 S21G26    30.01S
PROVO AIRPORT  MOSUNNY   84  48  28 SE8       30.07S
SALT LAKE CITY MOSUNNY   83  47  28 S15G22    30.00R
VERNAL         SUNNY     72  47  40 SE6       30.17S
WENDOVER       SUNNY     75  34  22 E9        30.01S
HEBER CITY     MOSUNNY   79  43  27 SW20G26   30.12F
WEST JORDAN    SUNNY     82  48  30 SE21G29   30.04F

$$

UTZ012>022-026-027-011800-

SOUTHERN/CENTRAL UTAH

CITY           SKY/WX    TMP DP  RH WIND       PRES   REMARKS
BLANDING       SUNNY     74  49  40 S6        30.31S
BRYCE CANYON   MOSUNNY   68  49  50 VRB3      30.33R
CEDAR CITY     SUNNY     78  45  30 SW14G20   30.16S
DELTA          SUNNY     83  44  25 S20G25    30.08F
HANKSVILLE     MOSUNNY   79  50  36 SE6       30.12F
MILFORD        SUNNY     83  47  28 SW17G25   30.11S
MOAB/CYNLANDS  SUNNY     80  50  34 CALM      30.11R
PRICE          MOSUNNY   72  50  45 SE6       30.20S
ST GEORGE      MOSUNNY   88  54  31 N6        30.02S
KANAB          SUNNY     75  57  53 S8        30.23R

$$

REGIONAL REPORTS     COLORADO/ARIZONA

CITY           SKY/WX    TMP DP  RH WIND       PRES   REMARKS
CRAIG, CO      SUNNY     75  49  39 NE7       30.22S
GRAND JUNCTION MOSUNNY   75  49  39 S3        30.15S
RIFLE          MOSUNNY   69  50  50 W5        30.21S
MONTROSE       SUNNY     77  47  34 E3        30.22F
CORTEZ         SUNNY     76  47  35 SW3       30.23F
PAGE, AZ       SUNNY     79  54  41 N5        30.13R
GRAND CANYON   SUNNY     70  49  47 S7        30.29S
KINGMAN        SUNNY     85  46  25 VRB6      30.06R
FLAGSTAFF      SUNNY     72  48  42 SW3       30.31S

$$

REGIONAL REPORTS    NEVADA/IDAHO/WYOMING

CITY           SKY/WX    TMP DP  RH WIND       PRES   REMARKS
LAS VEGAS, NV  MOSUNNY   89  48  24 SE9G18    29.90R
ELY            SUNNY     77  30  17 SW20G28   30.15S
ELKO           SUNNY     73  29  19 CALM      30.04F
POCATELLO, ID  SUNNY     71  38  29 VRB5      30.03S
BURLEY         SUNNY     71  38  29 VRB3      29.99S
EVANSTON, WY   SUNNY     76  40  27 SW21G28   30.20S
ROCK SPRINGS   MOSUNNY   70  42  36 VRB5      30.19F
KEMMERER       SUNNY     73  34  23 W17       30.21S

$$


USA.gov is the U.S. government's official web portal to all federal, state and local government web resources and services.